Location: Prairie State College
(41.5244°N, 87.6382°W)
Time: 12:52:54
(UTC-05:00)

Amateur Radio Satellites - All Passes

Search period start: 30 September 2014 12:22
Search period end: 01 October 2014 12:22
Location: Prairie State College, 41.5244°N, 87.6382°W

Satellite Date Start Highest point End Downlink Frequencies (MHz)
Time Altitude Azimuth
JAS-1B 30 Sep 12:57:18 13:03:50 34° 66° (ENE) 13:09:29 435.800 - 435.900 CW/SSB
Oscar 19 30 Sep 13:06:59 13:11:58 50° 71° (ENE) 13:16:59 437.125 CW, 437.150 USB
ITAMSAT 1 30 Sep 13:17:49 13:22:08 28° 66° (ENE) 13:26:28 435.822 SSB
Uribyol 2 30 Sep 13:18:44 13:23:11 30° 66° (ENE) 13:27:39 436.500 FM
Oscar 16 30 Sep 13:47:44 13:52:54 68° 258° (WSW) 13:58:06 437.025 USB, Beacon 2401.1428
AO-27 30 Sep 13:55:07 14:00:12 61° 72° (ENE) 14:05:20 436.795 MHz FM
AO-7 30 Sep 14:00:28 14:05:00 16° 47° (NE) 14:09:31 29.400 - 29.500 MHz
RS-15 30 Sep 14:02:48 14:10:44 23° 259° (W) 14:18:57 29.354 - 29.394 USB, Beacon 29.352 USB
AO-Echo 30 Sep 14:03:42 14:08:23 83° 75° (ENE) 14:13:07 ?
Gurwin Techsat 1B 30 Sep 14:15:49 14:20:51 46° 70° (ENE) 14:25:54 435.225 FM
Saudisat 1A 30 Sep 14:23:20 14:27:42 70° 121° (ESE) 14:32:06 436.775 MHz
TMSAT-1 30 Sep 14:44:45 14:49:57 62° 73° (ENE) 14:55:11 436.925 FM
JAS-1B 30 Sep 14:46:58 14:54:21 45° 260° (W) 15:00:37 435.800 - 435.900 CW/SSB
Oscar 19 30 Sep 14:47:47 14:51:34 20° 267° (W) 14:55:22 437.125 CW, 437.150 USB
MaSat-1 30 Sep 14:56:31 14:59:41 33° 57° (ENE) 15:02:27 437.345 MHz
ITAMSAT 1 30 Sep 14:56:41 15:01:27 37° 262° (W) 15:06:16 435.822 SSB
Uribyol 2 30 Sep 14:57:51 15:02:32 34° 263° (W) 15:07:16 436.500 FM
Uosat F 30 Sep 15:25:11 15:29:15 26° 65° (ENE) 15:33:19 435.120 FM
AO-27 30 Sep 15:36:56 15:40:07 16° 269° (W) 15:43:20 436.795 MHz FM
AO-7 30 Sep 15:48:06 15:56:17 68° 67° (ENE) 16:04:29 29.400 - 29.500 MHz
Gurwin Techsat 1B 30 Sep 15:56:54 16:01:01 23° 267° (W) 16:05:09 435.225 FM
Saudisat 1A 30 Sep 16:04:52 16:07:45 17° 319° (NW) 16:10:39 436.775 MHz
JAS-2 30 Sep 16:20:08 16:23:02 15° 58° (ENE) 16:26:00 435.800 - 435.900 CW/SSB, 435.910 FM
TMSAT-1 30 Sep 16:27:00 16:30:17 17° 269° (W) 16:33:35 436.925 FM
MaSat-1 30 Sep 16:34:45 16:35:37 11° 259° (W) 16:36:27 437.345 MHz
Hamsat 30 Sep 16:41:41 16:44:03 15° 64° (ENE) 16:46:24 145.90 MHz
KITSAT 1 30 Sep 16:45:19 16:52:52 45° 111° (ESE) 17:00:25 435.175 FM
Uosat F 30 Sep 17:03:12 17:07:50 38° 262° (W) 17:12:30 435.120 FM
OPAL 30 Sep 17:08:50 17:13:13 28° 98° (E) 17:17:31 ?
Sapphire 30 Sep 17:18:16 17:21:30 16° 40° (NE) 17:24:44 437.095 MHz 1200 baud AX-25 AFSK
Oscar 10/S400 30 Sep 17:28:41 17:46:57 53° 162° (SSE) 18:44:07 145.825 - 145.975 CW/USB, Beacon 145.810 USB
AO-7 30 Sep 17:42:56 17:49:37 27° 266° (W) 17:56:21 29.400 - 29.500 MHz
PCSat 30 Sep 17:43:16 17:47:39 24° 47° (NE) 17:52:00 145.825 MHz
JAS-2 30 Sep 18:02:19 18:07:27 70° 258° (WSW) 18:12:51 435.800 - 435.900 CW/SSB, 435.910 FM
Hamsat 30 Sep 18:15:19 18:19:33 54° 260° (W) 18:23:48 145.90 MHz
KITSAT 1 30 Sep 18:40:35 18:48:15 45° 311° (NW) 18:55:58 435.175 FM
OPAL 30 Sep 18:47:31 18:52:07 35° 294° (WNW) 18:56:39 ?
HO-68 30 Sep 18:54:17 18:57:24 13° 50° (NE) 19:00:31 435.675 MHz FM
Sapphire 30 Sep 19:00:19 19:05:47 83° 60° (ENE) 19:11:13 437.095 MHz 1200 baud AX-25 AFSK
SO-50 30 Sep 19:12:22 19:16:36 43° 117° (ESE) 19:20:57 436.795 FM
SO-67 30 Sep 19:14:26 19:17:53 81° 259° (W) 19:21:21 435.3500 MHz FM
PCSat 30 Sep 19:26:06 19:31:25 57° 246° (WSW) 19:36:42 145.825 MHz
STRAND 1 30 Sep 19:47:44 19:52:54 83° 103° (ESE) 19:58:04 ?
Oscar 11 30 Sep 20:33:11 20:35:35 15° 63° (ENE) 20:37:59 145.825 FM, Beacon 2401.500 USB
HO-68 30 Sep 20:36:44 20:43:46 66° 70° (ENE) 20:50:51 435.675 MHz FM
PANSAT 30 Sep 20:40:36 20:41:13 10° 172° (S) 20:41:49 not established
KITSAT 1 30 Sep 20:41:36 20:46:05 15° 337° (NNW) 20:50:35 435.175 FM
Sapphire 30 Sep 20:46:00 20:48:27 13° 257° (WSW) 20:50:53 437.095 MHz 1200 baud AX-25 AFSK
SO-50 30 Sep 20:53:37 20:57:20 25° 316° (NW) 21:01:09 436.795 FM
FUNcube-1 30 Sep 20:57:07 20:58:44 12° 61° (ENE) 21:00:22 145.950 - 145.970 MHz USB
UKube-1 30 Sep 21:00:24 21:04:22 36° 70° (ENE) 21:08:21 145.840 MHz, 145.915 MHz
Saudisat 1A 30 Sep 21:13:07 21:13:46 10° 34° (NE) 21:14:26 436.775 MHz
UOSAT-12 30 Sep 21:22:14 21:26:50 76° 121° (ESE) 21:31:33 437.025 FM, 437.400 FM
STRAND 1 30 Sep 21:28:59 21:31:23 13° 301° (WNW) 21:33:47 ?
ZACube-1 30 Sep 21:39:25 21:43:25 31° 69° (ENE) 21:47:29 437.345 MHz
ISS 30 Sep 22:04:32 22:07:38 38° 138° (SE) 22:10:45 145.800 FM
Oscar 11 30 Sep 22:07:02 22:11:18 55° 260° (W) 22:15:36 145.825 FM, Beacon 2401.500 USB
PANSAT 30 Sep 22:19:22 22:20:34 11° 185° (S) 22:21:47 not established
HO-68 30 Sep 22:26:32 22:31:59 23° 267° (W) 22:37:29 435.675 MHz FM
FUNcube-1 30 Sep 22:29:55 22:34:26 78° 258° (WSW) 22:39:04 145.950 - 145.970 MHz USB
UKube-1 30 Sep 22:37:29 22:40:40 20° 266° (W) 22:43:52 145.840 MHz, 145.915 MHz
KITSAT 1 30 Sep 22:43:14 22:45:48 12° 9° (N) 22:48:22 435.175 FM
Saudisat 1A 30 Sep 22:49:56 22:54:18 58° 54° (NE) 22:58:38 436.775 MHz
UOSAT-12 30 Sep 23:04:24 23:07:33 18° 320° (NW) 23:10:44 437.025 FM, 437.400 FM
AO-40 30 Sep 23:15:18 00:50:06 21° 225° (SW) 03:41:57 Beacon 2401.320
ZACube-1 30 Sep 23:16:01 23:19:48 26° 266° (W) 23:23:40 437.345 MHz
ISS 30 Sep 23:41:21 23:44:22 31° 335° (NNW) 23:47:23 145.800 FM
Saudisat 1A 01 Oct 00:30:51 00:33:24 15° 251° (WSW) 00:35:56 436.775 MHz
KITSAT 1 01 Oct 00:38:06 00:44:42 26° 38° (NE) 00:51:16 435.175 FM
Oscar 19 01 Oct 01:19:38 01:22:56 17° 91° (E) 01:26:14 437.125 CW, 437.150 USB
ISS 01 Oct 01:19:51 01:21:51 15° 355° (N) 01:23:50 145.800 FM
Oscar 16 01 Oct 01:59:30 02:04:24 42° 98° (E) 02:09:14 437.025 USB, Beacon 2401.1428
AO-27 01 Oct 02:08:48 02:12:46 22° 93° (E) 02:16:43 436.795 MHz FM
AO-Echo 01 Oct 02:10:44 02:15:00 27° 95° (E) 02:19:21 ?
RS-15 01 Oct 02:11:55 02:22:38 60° 114° (ESE) 02:33:14 29.354 - 29.394 USB, Beacon 29.352 USB
JAS-1B 01 Oct 02:30:46 02:36:14 46° 100° (E) 02:42:08 435.800 - 435.900 CW/SSB
Gurwin Techsat 1B 01 Oct 02:32:51 02:36:25 18° 91° (E) 02:39:57 435.225 FM
KITSAT 1 01 Oct 02:33:01 02:41:09 88° 241° (WSW) 02:49:13 435.175 FM
ISS 01 Oct 02:57:01 02:59:30 19° 15° (NNE) 03:01:58 145.800 FM
Oscar 19 01 Oct 02:57:36 03:02:39 57° 288° (WNW) 03:07:39 437.125 CW, 437.150 USB
TMSAT-1 01 Oct 03:01:04 03:05:21 24° 94° (E) 03:09:36 436.925 FM
ITAMSAT 1 01 Oct 03:08:50 03:14:06 77° 103° (ESE) 03:19:19 435.822 SSB
Uribyol 2 01 Oct 03:09:46 03:15:02 84° 104° (ESE) 03:20:16 436.500 FM
Oscar 16 01 Oct 03:39:23 03:43:29 24° 295° (WNW) 03:47:33 437.025 USB, Beacon 2401.1428
SO-50 01 Oct 03:43:33 03:48:09 44° 51° (NE) 03:52:48 436.795 FM
AO-27 01 Oct 03:47:30 03:52:30 47° 290° (WNW) 03:57:29 436.795 MHz FM
AO-Echo 01 Oct 03:49:14 03:53:48 36° 291° (WNW) 03:58:28 ?
AO-7 01 Oct 03:50:51 03:56:41 21° 92° (E) 04:02:29 29.400 - 29.500 MHz
Gurwin Techsat 1B 01 Oct 04:11:32 04:16:45 58° 288° (WNW) 04:21:56 435.225 FM
UOSAT-12 01 Oct 04:13:24 04:15:28 13° 35° (NE) 04:17:32 437.025 FM, 437.400 FM
JAS-1B 01 Oct 04:22:14 04:26:43 24° 296° (WNW) 04:31:23 435.800 - 435.900 CW/SSB
OPAL 01 Oct 04:23:27 04:28:30 53° 69° (ENE) 04:33:35 ?
RS-15 01 Oct 04:25:01 04:35:22 45° 318° (NW) 04:45:45 29.354 - 29.394 USB, Beacon 29.352 USB
KITSAT 1 01 Oct 04:30:31 04:35:23 18° 259° (W) 04:40:16 435.175 FM
ISS 01 Oct 04:33:19 04:36:39 74° 35° (NE) 04:39:57 145.800 FM
TMSAT-1 01 Oct 04:40:25 04:45:25 43° 290° (WNW) 04:50:23 436.925 FM
MaSat-1 01 Oct 04:40:27 04:43:42 18° 104° (ESE) 04:46:52 437.345 MHz
ITAMSAT 1 01 Oct 04:50:08 04:52:55 15° 300° (WNW) 04:55:43 435.822 SSB
Uribyol 2 01 Oct 04:51:17 04:53:47 14° 301° (WNW) 04:56:17 436.500 FM
Uosat F 01 Oct 05:10:14 05:15:15 64° 102° (ESE) 05:20:15 435.120 FM
JAS-2 01 Oct 05:10:38 05:15:04 18° 91° (E) 05:19:45 435.800 - 435.900 CW/SSB, 435.910 FM
SO-50 01 Oct 05:24:37 05:28:30 24° 248° (WSW) 05:32:24 436.795 FM
STRAND 1 01 Oct 05:27:21 05:30:21 16° 61° (ENE) 05:33:21 ?
AO-7 01 Oct 05:42:00 05:50:19 83° 290° (WNW) 05:58:37 29.400 - 29.500 MHz
UOSAT-12 01 Oct 05:51:49 05:56:32 67° 55° (NE) 06:01:10 437.025 FM, 437.400 FM
Hamsat 01 Oct 06:01:21 06:04:50 25° 95° (E) 06:08:18 145.90 MHz
OPAL 01 Oct 06:03:58 06:07:40 19° 265° (W) 06:11:22 ?
ISS 01 Oct 06:11:21 06:12:55 13° 230° (SW) 06:14:30 145.800 FM
MaSat-1 01 Oct 06:15:04 06:19:51 54° 299° (WNW) 06:24:22 437.345 MHz
RS-15 01 Oct 06:43:45 06:51:36 21° 350° (N) 06:59:34 29.354 - 29.394 USB, Beacon 29.352 USB
Uosat F 01 Oct 06:50:25 06:53:30 17° 299° (WNW) 06:56:35 435.120 FM
JAS-2 01 Oct 06:53:54 07:00:35 83° 285° (WNW) 07:08:04 435.800 - 435.900 CW/SSB, 435.910 FM
STRAND 1 01 Oct 07:03:54 07:08:57 68° 258° (WSW) 07:14:04 ?
UOSAT-12 01 Oct 07:33:36 07:36:06 14° 252° (WSW) 07:38:35 437.025 FM, 437.400 FM
AO-7 01 Oct 07:36:26 07:41:55 20° 310° (NW) 07:47:25 29.400 - 29.500 MHz
Hamsat 01 Oct 07:37:13 07:40:45 27° 291° (WNW) 07:44:15 145.90 MHz
HO-68 01 Oct 08:09:25 08:09:55 10° 86° (E) 08:10:24 435.675 MHz FM
SO-67 01 Oct 08:10:40 08:14:07 67° 284° (WNW) 08:17:31 435.3500 MHz FM
PCSat 01 Oct 08:26:36 08:30:10 18° 105° (ESE) 08:33:44 145.825 MHz
JAS-2 01 Oct 08:41:00 08:44:52 16° 301° (WNW) 08:48:57 435.800 - 435.900 CW/SSB, 435.910 FM
RS-15 01 Oct 09:00:02 09:09:08 28° 26° (NNE) 09:18:25 29.354 - 29.394 USB, Beacon 29.352 USB
Sapphire 01 Oct 09:42:01 09:47:24 76° 117° (ESE) 09:52:50 437.095 MHz 1200 baud AX-25 AFSK
HO-68 01 Oct 09:51:40 09:58:51 68° 104° (ESE) 10:05:59 435.675 MHz FM
Oscar 11 01 Oct 09:54:56 09:58:34 26° 95° (E) 10:02:09 145.825 FM, Beacon 2401.500 USB
PCSat 01 Oct 10:07:40 10:13:01 63° 302° (WNW) 10:18:26 145.825 MHz
FUNcube-1 01 Oct 10:19:54 10:23:21 21° 93° (E) 10:26:43 145.950 - 145.970 MHz USB
UKube-1 01 Oct 10:24:05 10:28:27 67° 102° (ESE) 10:32:47 145.840 MHz, 145.915 MHz
ZACube-1 01 Oct 11:04:22 11:08:54 63° 101° (E) 11:13:19 437.345 MHz
RS-15 01 Oct 11:12:37 11:23:46 74° 54° (NE) 11:35:21 29.354 - 29.394 USB, Beacon 29.352 USB
Sapphire 01 Oct 11:27:35 11:31:26 19° 317° (NW) 11:35:18 437.095 MHz 1200 baud AX-25 AFSK
Oscar 11 01 Oct 11:31:00 11:34:42 28° 291° (WNW) 11:38:22 145.825 FM, Beacon 2401.500 USB
HO-68 01 Oct 11:40:21 11:45:57 25° 302° (WNW) 11:51:32 435.675 MHz FM
PCSat 01 Oct 11:55:12 11:57:34 13° 323° (NW) 11:59:55 145.825 MHz
FUNcube-1 01 Oct 11:55:39 11:59:51 37° 290° (WNW) 12:03:57 145.950 - 145.970 MHz USB
UKube-1 01 Oct 12:02:15 12:04:04 13° 299° (WNW) 12:05:54 145.840 MHz, 145.915 MHz
